Other Public Products
Issued by NWS Grand Forks, ND

Home | Current Version | Previous Version | Text Only | Print | Product List | Glossary Off
Versions: 1 2 3 4 5 6 7 8 9 10 11 12 13 14 15 16 17 18 19 20 21 22 23 24 25 26 27 28 29 30 31 32 33 34 35 36 37 38 39 40 41 42 43 44 45 46 47 48 49 50

123
FPUS83 KFGF 250310
OPUFGF
PRAIRIE TO PINES WEATHER ROUNDUP
NATIONAL WEATHER SERVICE EASTERN NORTH DAKOTA/GRAND FORKS ND
900 PM CST FRI FEB 24 2017

 **SATELLITE DATA USED TO AUGMENT SKY COVER AT AUTOMATED STATIONS**
 *****  WEATHER ACROSS EASTERN NORTH DAKOTA  *****

CITY           SKY/WX    TMP DP  RH WIND       PRES   REMARKS
GRAND FORKS    FAIR      16   9  74 N7        30.11F WCI   6
GRAND FORKS AF FAIR      13   9  83 CALM      30.11F
GRAND CITY NWS NOT AVBL
BUXTON         NOT AVBL
DEVILS LAKE    FAIR      18  13  80 SW5       30.09S WCI  11
FARGO          FAIR      19  10  68 N16       30.10S WCI   4
WAHPETON ARPT  FAIR      19   9  63 N20G29    30.09R WCI   4
$$

 *****  WEATHER ACROSS CENTRAL AND WESTERN NORTH DAKOTA  *****

CITY           SKY/WX    TMP DP  RH WIND       PRES   REMARKS
JAMESTOWN      FAIR      17  14  88 NW5       30.09S WCI  10
BISMARCK       FAIR      24  16  71 CALM      30.11F
MINOT          FAIR      24  16  71 SW7       30.06F WCI  16
MINOT AFB      FAIR      20  15  83 W8        30.05F WCI  10
GARRISON         N/A     18  14  84 W5        30.07F WCI  11
WILLISTON      CLOUDY    22  15  75 CALM      30.05F
DICKINSON      CLOUDY    21  16  81 S5        30.02F WCI  15
HETTINGER      CLOUDY    23  15  71 SE5       30.06F WCI  17
$$

 *****  OTHER OBSERVATIONS NORTHEAST NORTH DAKOTA  *****

CITY           SKY/WX    TMP DP  RH WIND       PRES   REMARKS
WALHALLA       NOT AVBL
LANGDON        NOT AVBL
CAVALIER         N/A     10   9  92 CALM      30.11F
GRAFTON        FAIR      12  12 100 NW6       30.13F WCI   3
CANDO          NOT AVBL
FORT TOTTEN      N/A     14  13  95 CALM      29.95S
ROLLA          MOCLDY    12  10  92 CALM      30.05F
RUGBY            N/A     14  10  85 SW8       30.07F WCI   3
 ***** THE ABOVE OBSERVATIONS ARE NON NWS ARE NOT QUALITY
        CONTROLLED AND MAY MIS-REPORT RAIN FOR SNOW...
$$

 *****  OTHER OBSERVATIONS SOUTHEAST NORTH DAKOTA *****

CITY           SKY/WX    TMP DP  RH WIND       PRES   REMARKS
COOPERSTOWN    FAIR      18  14  86 N7        30.10S WCI   8
VALLEY CITY    FAIR      18  16  93 N9        30.11S WCI   6
OAKES          NOT AVBL
GWINNER        FAIR      21  18  86 NW12      30.10S WCI   9
SHEYENNE NWR     N/A     20  14  76 N6        29.95S WCI  12
BUFFALO        NOT AVBL
WYNDMERE       NOT AVBL
 ***** THE ABOVE OBSERVATIONS ARE NON NWS ARE NOT QUALITY
       CONTROLLED AND MAY MIS-REPORT RAIN FOR SNOW...
$$

  *****  WEATHER ACROSS NORTHERN MINNESOTA  *****

CITY           SKY/WX    TMP DP  RH WIND       PRES   REMARKS
FLAG ISLAND    FAIR      10   3  72 NW12      30.02S WCI  -4
WARROAD        FAIR      10   3  72 NW10      30.04S WCI  -3
ROSEAU         FAIR      10   3  72 NW7       30.05F WCI   0
HALLOCK        FAIR      10   7  85 W7        30.10F WCI   0
THF RVR FALLS  FAIR      12   8  84 NW15      30.08S WCI  -4
HALSTAD          N/A     17   9  69 N14         N/A  WCI   3
FOSSTON        FAIR      12   7  79 NW13G18   30.04S WCI  -3
BAUDETTE       FAIR      10   1  67 NW9       30.00R WCI  -3
WASKISH        FAIR      12   5  73 NW6       30.00R WCI   3
CROOKSTON      FAIR      16  10  79 N14       30.11S WCI   1
$$
  *****  WEATHER ACROSS CENTRAL AND WEST MINNESOTA  *****

CITY           SKY/WX    TMP DP  RH WIND       PRES   REMARKS
BEMIDJI        FAIR      13   5  71 NW15G21   29.98S WCI  -3
PARK RAPIDS    FAIR      15   4  61 NW14      29.96R WCI   0
WADENA         FAIR      16  10  79 NW15      29.97R WCI   1
DETROIT LAKES  FAIR      18  12  79 N15G24    30.02S WCI   3
MOORHEAD       FAIR      18  10  73 N18       30.10R WCI   2
FERGUS FALLS   FAIR      18  10  73 N18G26    30.09R WCI   2
ELBOW LAKE     FAIR      17  12  80 NW14G25   30.03S WCI   3
MORRIS MN      FAIR      19  14  79 N18       30.02R WCI   4
STAPLES        FAIR      16   7  67 NW17      29.96R WCI   0
WHEATON        FAIR      19  10  68 NW17G23   30.09S WCI   4
$$
  *****  WEATHER ELSEWHERE ACROSS MINNESOTA  *****

CITY           SKY/WX    TMP DP  RH WIND       PRES   REMARKS
DULUTH         FAIR      16   7  67 N10       29.84R WCI   4
INTRNTL FALLS  FAIR      11   1  64 NW10      29.96S WCI  -3
ELY            FAIR      12   1  62 N5G16     29.86S WCI   4
CLOQUET        FAIR      16   7  67 NW14G22   29.86S WCI   1
BRAINERD       FAIR      18   7  62 N16       29.93S WCI   3
HIBBING        CLOUDY    14   4  64 NW10      29.88S WCI   1
ALEXANDRIA     FAIR      18  11  74 NW16G24   29.98R WCI   3
SAINT CLOUD    FAIR      21   8  57 N13       29.92R WCI   9
MINNEAPOLIS    MOCLDY    23   9  55 N18G24    29.89R WCI   9
$$

  *****  WEATHER ACROSS SOUTH DAKOTA  *****

CITY           SKY/WX    TMP DP  RH WIND       PRES   REMARKS
SIOUX FALLS    MOCLDY    22  14  71 N21       30.03R WCI   6
BROOKINGS      FAIR      20  13  74 N17       30.02R WCI   5
WATERTOWN      FAIR      18  13  80 N15       30.03R WCI   4
HURON          FAIR      22  16  78 N15       30.11R WCI   9
SISSETON         N/A     19  16  88 N13       30.07R WCI   6
ABERDEEN       FAIR      20  14  77 NW10      30.12S WCI   9
MITCHELL       FAIR      25  17  72 N21       30.11R WCI  11
PIERRE         FAIR      19  12  74 W6        30.12S WCI  11
MOBRIDGE       FAIR      23  14  68 MISG      30.08S
RAPID CITY     FAIR      17  13  84 SW3       30.05S
$$

  *****  SOME WEATHER IN NEARBY STATES *****

CITY           SKY/WX    TMP DP  RH WIND       PRES   REMARKS
GLASGOW MT     LGT SNOW  28  27  96 NW5       30.03S FOG     WCI  23
GREAT FALLS MT CLOUDY    25  16  68 N8        30.04R WCI  16
CHEYENNE WY    FAIR       5   1  83 W7        29.96S WCI  -7
SCOTTSBLUFF NE FAIR      13  10  88 N3        30.05S
OMAHA NE       MOCLDY    24  16  71 NW15      30.00R WCI  11
DES MOINES IA  FLURRIES  25  19  78 NW17      29.88R WCI  12
DAVENPORT IA   FLURRIES  31  28  89 N15       29.68R WCI  20
CHICAGO IL     CLOUDY    37  33  85 W14       29.57R
EAU CLAIRE WI  LGT SNOW  18  14  84 N10       29.81R VSB 3/4 WCI   6
LA CROSSE WI   CLOUDY    23  18  81 N22       29.77R HAZE    WCI   8
$$

  *****  SOME NATIONAL WEATHER *****

CITY           SKY/WX    TMP DP  RH WIND       PRES   REMARKS
LA GUARDIA NY  FAIR      58  54  86 S9        29.86S
RALEIGH NC     MOCLDY    67  55  65 S7        29.84R
ATLANTA GA     MOCLDY    68  54  60 S6        29.80S
NEW ORLEANS LA FAIR      67  63  87 S7        29.83R
OKLAHOMA CITY  FAIR      38  22  52 N17G26    30.09R
ALBUQUERQUE NM FAIR      39   0  19 NW12      30.03R
SALT LAKE CITY FAIR      28  17  63 SE6       30.13S WCI  22
LOS ANGELES CA FAIR      53  37  54 W12       30.15S
BOISE ID       FAIR      31  18  58 E3        30.15R
SEATTLE WA     MOCLDY    40  30  67 NW6       30.18R
$$

*** WEATHER ACROSS MANITOBA...SASKATCHEWAN AND ONTARIO ***
                ***ONTARIO***

CITY           SKY/WX    TMP DP  RH WIND       PRES   REMARKS
GERALDTON      FLURRIES   7   1  78 NE10G20   29.86F WCI  -8
THUNDER BAY    CLOUDY    14   5  67 N7G18     29.86F WCI   4
SIOUX LOOKOUT  FLURRIES  10   3  72 N3        29.94F
TORONTO        FOG       37  37 100 E8        29.57F VSB 1/2
BIG TROUT LK   MOCLDY    -2  -8  78 E5        30.06F WCI -12
PICKLE LAKE    NOT AVBL
DRYDEN         MOCLDY     7   1  78 NW8       29.94F WCI  -6
KENORA         CLEAR      7   1  78 NW3       29.99S
$$
                *** MANITOBA***

CITY           SKY/WX    TMP DP  RH WIND       PRES   REMARKS
BRANDON        FLURRIES  16  12  86 SW5       30.05F WCI   9
DAUPHIN        CLOUDY    21  16  79 W5        30.03F WCI  15
ISLAND LAKE    FLURRIES   3   0  85 CALM      30.06F
PILOT MOUND      N/A     14   9  79 W5          N/A  WCI   6
THE PAS        FLURRIES  10   3  72 S2        30.06F
THOMPSON       PTCLDY   -13 -18  77 VRB2      30.07F
WINNIPEG       CLEAR     10   5  79 W6        30.09F WCI   1
LYNN LAKE      PTCLDY    -4  -8  84 NW6       30.03F WCI -16
CHURCHILL      PTCLDY    -6 -11  77 S7        30.17F WCI -20
GILLAM         CLEAR     -9 -13  84 E5        30.11F WCI -21
$$
                ***SASKATCHEWAN***

CITY           SKY/WX    TMP DP  RH WIND       PRES   REMARKS
ESTEVAN        FLURRIES  25  19  80 SW10      30.02F WCI  15
KINDERSLEY     MOCLDY    16  12  86 N14G21    30.09S WCI   1
LLOYDMINSTER   PTCLDY     3   0  85 NW8       30.13F WCI -10
PRINCE ALBERT  MOCLDY     9   0  66 N13       30.11S WCI  -7
REGINA         FLURRIES  23  23 100 NW10      30.02S WCI  12
YORKTON        PTCLDY    19  18  93 W3        30.00F



USA.gov is the U.S. government's official web portal to all federal, state and local government web resources and services.